Showing default

COSMOS 2576, 59773

Orbit data source: Space-Track

COSMOS 2576, 59773 is a payload satellite owned by TS VS RF (CIS) in SSO that was launched on Thu, 16 May 2024 UTC via a SOYUZ-2-1B launch vehicle from the Plesetsk Missile And Space Complex (PKMTR). Payload-class satellites include a variety of spacecraft equipped with specific instruments for various scientific and technological missions. These include communications satellites like Starlink; space stations such as the ISS; scientific satellites like the Hubble; Earth observation satellites from companies like Planet Labs, Umbra, and HawkEye 360; GPS; miniature CubeSats for education and research; and military/defense satellites.

Loading next visibility...
Identifier
59773, 2024-092A
Orbit
SSO
Country
Flag of CISCIS
Related business
Manufacturer
Lavochkin
Mission
Operational spacecraft
Bus & Motor
KARAT-200, Unknown motor
Mass
~500 kg wet, ~500 kg dry
Launch date (UTC)
2024-05-16 (1 year ago)
Launch vehicle
SOYUZ-2-1B
Launch site
Plesetsk Missile And Space Complex (PKMTR)
Object type
Payload
Rocket body
Debris
Shape & HBR
Unknown
Radar Cross Section
Large (>1 m²)

Expand to show TLE details & history
Last TLE update: 5 days ago

TLE from 5 days ago
0 COSMOS 2576
1 59773U 24092A   25254.66553709  .00011440  00000-0  45193-3 0  9992
2 59773  97.4198   7.8017 0012488 159.0690 201.1062 15.25598384 73931
Epoch: 2025-09-11T15:58Z
TLE epoch observation values (Epoch: 2025-09-11T15:58:22.404Z)
Latitude
-0.00001°
Longitude
137.28401°
Altitude
500.09 km
Speed
7.61 km/s
True Right ascension
00h 31m 12s
True Declination
0° 00' 00"
Sunlit
Object was in full shadow at epoch
Visualization orbit readout
Latitude
Unknown
Longitude
Unknown
Altitude
Unknown
Speed
Unknown
Apparent Right ascension
Unknown
Apparent Declination
Unknown
Sunlit
N/A
Visualization observer readout
Local Sidereal Time
15:21:04
Azimuth
Unknown
Elevation
Unknown
Doppler factor
Unknown
Orbital elements
Apogee altitude
494.52 km
Perigee altitude
477.376 km
Semi-major axis
6,864.085 km
Eccentricity
0.00125
Inclination
97.4198°
RAAN
7.8017°
Arg. of periapsis
159.069°
True anomaly
201.05474°
Mean anomaly
201.1062°
Eccentric anomaly
201.08046°
Mean motion
3.81653 °/min
Orbital period
94.33 mins
BSTAR
0.00045193
Loading maneuver chart data...
Computing Atmospheric mass density...
Loading historical data...
Loading historical data...
Loading historical data...
Loading historical data...
Loading historical data...
Loading historical data...
Loading historical data...

Documentation

Showing up to 5 results
|